Regional Weather Roundup
Issued by NWS Newport/Morehead, NC

Current Version | Previous Version | Graphics & Text | Print | Product List | Glossary Off
Versions: 1 2 3 4 5 6 7 8 9 10 11 12 13 14 15 16 17 18 19 20 21 22 23 24 25 26 27 28 29 30 31 32 33 34 35 36 37 38 39 40 41 42 43 44 45 46 47 48 49 50

000
ASUS42 KMHX 212022
RWRMHX
WEATHER ROUNDUP FOR EASTERN NORTH CAROLINA
NATIONAL WEATHER SERVICE NEWPORT/MOREHEAD CITY NC
400 PM EDT TUE OCT 21 2014

NOTE: "FAIR" INDICATES FEW OR NO CLOUDS BELOW 12,000 FEET
WITH NO SIGNIFICANT WEATHER AND/OR OBSTRUCTIONS TO VISIBILITY

NCZ015>017-031-032-045>047-102-103-212100-
NORTH COAST

CITY           SKY/WX    TMP DP  RH WIND       PRES   REMARKS
EDENTON        MOSUNNY   74  55  51 W6        29.82S
ELIZABETH CITY MOSUNNY   72  54  53 SW8       29.81S
KITTY HAWK     CLEAR     73  53  50 CALM      29.81F
MANTEO         MOSUNNY   70  57  64 S5        29.82F

$$

NCZ045>047-081-094-103-104-212100-
CENTRAL COAST

CITY           SKY/WX    TMP DP  RH WIND       PRES   REMARKS
FRISCO         SUNNY     71  60  68 SW7       29.85S
SWANQUARTER    NOT AVBL

$$

NCZ095-097-098-100-101-212100-
SOUTHERN COAST

CITY           SKY/WX    TMP DP  RH WIND       PRES   REMARKS
BEAUFORT       SUNNY     73  61  65 SW12      29.84F
CEDAR ISLAND   NOT AVBL
JACKSONVILLE   MOSUNNY   75  51  43 SW3       29.82F
PINEY ISLAND   MOCLDY    75  57  53 SW6       29.83S
WILMINGTON     SUNNY     78  52  40 SW8       29.83F


$$

NCZ011>013-027>030-043-044-078>080-089-090>093-098-212100-
COASTAL PLAIN

CITY           SKY/WX    TMP DP  RH WIND       PRES   REMARKS
AHOSKIE        MOSUNNY   69  51  52 CALM      29.83R
CLINTON        MOSUNNY   76  52  43 W3        29.84S
ELIZABETHTOWN  SUNNY     77  47  34 W5        29.84S
GOLDSBORO      SUNNY     75  53  45 W8        29.82S
GREENVILLE     SUNNY     73  50  43 W5        29.85S
HAVELOCK       MOSUNNY   75  58  55 S10       29.84F
KENANSVILLE    MOSUNNY   74  47  38 W6        29.85S
KINSTON        SUNNY     75  46  35 W6        29.84S
NEW BERN       MOSUNNY   78  50  37 SW8       29.83F
RICHLANDS      SUNNY     75  48  38 SW6       29.84S
ROCKY MOUNT    MOSUNNY   72  48  42 W7        29.83S
WASHINGTON     MOSUNNY   74  51  43 CALM      29.82S
WHITEVILLE     SUNNY     77  47  35 W3        29.83F

$$

AMZ130-135-150-152-154-156-158-170-250-252-270-ANZ085-086-088-633-658-670-212100-
MARINE OBSERVATIONS

STATION/POSITION TIME  TEMP    WIND        PRES    WAVE   SWELL
                       AIR SEA DIR/SP/G            HT/PER HT/PER
                 (UTC) (F)     (DEG/KT/KT) (MB)    (FT/S) (FT/S)
CHESAPEAKE LIGHT 2000   67      50/  3/  3 1010.2
64 E VA BEACH    2000   69 69  230/ 12/ 12 1009.4    2/ 5   2/10
DUCK             2000   72 69  250/  5/  7 1009.0
2 E DUCK         2000                        N/A     2/10   2/11
10 NE DUCK       1900      71                N/A     2/10   2/13
OREGON INLET     2000   69 67  190/ 15/ 17 1009.8
13E OREGON INLT  2000      74                N/A     2/11   2/11
HATTERAS CG      2000   72 71  210/  5/  7 1010.9
DIAMOND BUOY     2000   73     220/ 12/ 16 1010.8    3/ 4   2/10
17 S OCRACOKE    1900          VRB 10/ 12  1011.0
CAPE LOOKOUT     2000   72     220/  9/ 12 1010.4
BEAUFORT LAB     2000   72 70  210/ 10/ 14 1009.7
30 SE NEW RIVER  2000   72 76  220/ 10/ 12 1010.3    2/10   2/10
5 SE WRIGHTSVLE  1900   69 74  190/ 12/ 14   N/A
225 S CAPE HAT   1915   76 80  170/  8/ 10 1012.5    4/ 8   3/ 8
41 SE CHARLESTON 2000   74 80  250/  6/  8 1011.6    2/ 9   2/ 9

$$



USA.gov is the U.S. government's official web portal to all federal, state and local government web resources and services.